• In Uzbekistan
  • List of Countries
  • For 7 days
  • Water Temperature
  • Weather Map
  • Weather Widgets
  • user-avatar
    Login

    Hourly Weather Sambor

    Today, 18 January, Saturday

    Time Temperature Precipitation Wind Pressure Humidity
    00:00 0°C° 0 mm 3 mps 742 mmHg 86%
    01:00 +1°C° 0 mm 2 mps 742 mmHg 86%
    02:00 -1°C° 0 mm 3 mps 742 mmHg 87%
    03:00 -1°C° 0 mm 3 mps 742 mmHg 87%
    04:00 -1°C° 0 mm 2 mps 742 mmHg 87%
    05:00 -1°C° 0 mm 2 mps 741 mmHg 87%
    06:00 -1°C° 0 mm 2 mps 741 mmHg 86%
    07:00 -1°C° 0 mm 2 mps 741 mmHg 86%
    08:00 -1°C° 0 mm 2 mps 741 mmHg 86%
    09:00 +2°C° 0 mm 1 mps 741 mmHg 81%
    10:00 +3°C° 0 mm 1 mps 741 mmHg 76%
    11:00 +4°C° 0 mm 1 mps 742 mmHg 71%
    12:00 +5°C° 0 mm 1 mps 741 mmHg 69%
    13:00 +6°C° 0 mm 1 mps 741 mmHg 66%
    14:00 +6°C° 0 mm 1 mps 741 mmHg 64%
    15:00 +5°C° 0 mm 1 mps 741 mmHg 70%
    16:00 +4°C° 0 mm 1 mps 741 mmHg 75%
    17:00 +2°C° 0 mm 1 mps 740 mmHg 80%
    18:00 +2°C° 0 mm 1 mps 740 mmHg 81%
    19:00 +2°C° 0 mm 1 mps 741 mmHg 82%
    20:00 0°C° 0 mm 0 mps 741 mmHg 83%
    21:00 0°C° 0 mm 0 mps 741 mmHg 84%
    22:00 0°C° 0 mm 0 mps 741 mmHg 85%
    23:00 0°C° 0 mm 0 mps 741 mmHg 86%

    Tomorrow, 19 January, Sunday

    Time Temperature Precipitation Wind Pressure Humidity
    00:00 -1°C° 0 mm 0 mps 741 mmHg 86%
    01:00 -1°C° 0 mm 0 mps 741 mmHg 86%
    02:00 -1°C° 0 mm 0 mps 741 mmHg 86%
    03:00 -1°C° 0 mm 0 mps 741 mmHg 87%
    04:00 -1°C° 0 mm 0 mps 741 mmHg 87%
    05:00 -1°C° 0 mm 0 mps 741 mmHg 87%
    06:00 -1°C° 0 mm 0 mps 741 mmHg 88%
    07:00 -1°C° 0 mm 0 mps 741 mmHg 88%
    08:00 -1°C° 0 mm 0 mps 742 mmHg 88%
    09:00 +1°C° 0 mm 1 mps 742 mmHg 85%
    10:00 +1°C° 0 mm 1 mps 742 mmHg 81%
    11:00 +2°C° 0 mm 1 mps 743 mmHg 77%
    12:00 +3°C° 0 mm 1 mps 743 mmHg 78%
    13:00 +3°C° 0 mm 1 mps 744 mmHg 80%
    14:00 +3°C° 0 mm 1 mps 744 mmHg 81%
    15:00 +3°C° 0 mm 1 mps 744 mmHg 85%
    16:00 +2°C° 0 mm 1 mps 745 mmHg 89%
    17:00 +2°C° 0 mm 1 mps 745 mmHg 93%
    18:00 +2°C° 0 mm 1 mps 746 mmHg 94%
    19:00 +2°C° 0 mm 1 mps 746 mmHg 96%
    20:00 +2°C° 0 mm 1 mps 747 mmHg 97%
    21:00 +2°C° 0 mm 1 mps 748 mmHg 97%
    22:00 +1°C° 0 mm 2 mps 748 mmHg 98%
    23:00 +1°C° 0 mm 2 mps 749 mmHg 98%

    Day after tomorrow, 20 January, Monday

    Time Temperature Precipitation Wind Pressure Humidity
    00:00 +1°C° 0 mm 2 mps 749 mmHg 98%
    01:00 +1°C° 0 mm 2 mps 750 mmHg 97%
    02:00 +1°C° 0 mm 2 mps 750 mmHg 97%
    03:00 +1°C° 0 mm 2 mps 751 mmHg 97%
    04:00 +1°C° 0 mm 2 mps 751 mmHg 97%
    05:00 +1°C° 0 mm 2 mps 751 mmHg 98%
    06:00 +1°C° 0 mm 2 mps 752 mmHg 97%
    07:00 +1°C° 0 mm 2 mps 752 mmHg 97%
    08:00 -1°C° 0 mm 2 mps 753 mmHg 96%
    09:00 +1°C° 0 mm 2 mps 753 mmHg 94%
    10:00 +1°C° 0 mm 2 mps 754 mmHg 91%
    11:00 +1°C° 0 mm 2 mps 754 mmHg 89%
    12:00 +1°C° 0 mm 2 mps 754 mmHg 87%
    13:00 +1°C° 0 mm 3 mps 754 mmHg 86%
    14:00 +1°C° 0 mm 3 mps 755 mmHg 84%
    15:00 +1°C° 0 mm 3 mps 755 mmHg 86%
    16:00 0°C° 0 mm 3 mps 755 mmHg 88%
    17:00 0°C° 0 mm 3 mps 755 mmHg 89%
    18:00 0°C° 0 mm 3 mps 755 mmHg 89%
    19:00 0°C° 0 mm 3 mps 755 mmHg 89%
    20:00 0°C° 0 mm 3 mps 755 mmHg 89%
    21:00 -1°C° 0 mm 3 mps 755 mmHg 90%
    22:00 -1°C° 0 mm 3 mps 755 mmHg 91%
    23:00 -2°C° 0 mm 2 mps 755 mmHg 91%

    21 January, Tuesday

    Time Temperature Precipitation Wind Pressure Humidity
    00:00 -2°C° 0 mm 3 mps 755 mmHg 91%
    01:00 -2°C° 0 mm 3 mps 754 mmHg 90%
    02:00 -2°C° 0 mm 3 mps 754 mmHg 90%
    03:00 -2°C° 0 mm 3 mps 754 mmHg 88%
    04:00 -2°C° 0 mm 3 mps 753 mmHg 87%
    05:00 -2°C° 0 mm 3 mps 753 mmHg 85%
    06:00 -3°C° 0 mm 4 mps 753 mmHg 80%
    07:00 -2°C° 0 mm 4 mps 752 mmHg 76%
    08:00 -2°C° 0 mm 4 mps 752 mmHg 71%
    09:00 -1°C° 0 mm 5 mps 752 mmHg 65%
    10:00 0°C° 0 mm 5 mps 752 mmHg 59%
    11:00 +1°C° 0 mm 5 mps 752 mmHg 53%
    12:00 +2°C° 0 mm 6 mps 751 mmHg 52%
    13:00 +3°C° 0 mm 6 mps 751 mmHg 51%
    14:00 +3°C° 0 mm 6 mps 750 mmHg 49%
    15:00 +2°C° 0 mm 6 mps 750 mmHg 52%
    16:00 +1°C° 0 mm 5 mps 749 mmHg 55%
    17:00 +1°C° 0 mm 5 mps 749 mmHg 59%
    18:00 0°C° 0 mm 5 mps 749 mmHg 59%
    19:00 0°C° 0 mm 5 mps 749 mmHg 60%
    20:00 0°C° 0 mm 5 mps 748 mmHg 61%
    21:00 0°C° 0 mm 5 mps 748 mmHg 60%
    22:00 0°C° 0 mm 5 mps 748 mmHg 60%
    23:00 -1°C° 0 mm 6 mps 747 mmHg 60%

    22 January, Wednesday

    Time Temperature Precipitation Wind Pressure Humidity
    00:00 -1°C° 0 mm 6 mps 747 mmHg 60%
    01:00 -1°C° 0 mm 6 mps 747 mmHg 60%
    02:00 -1°C° 0 mm 6 mps 746 mmHg 60%
    03:00 -1°C° 0 mm 5 mps 746 mmHg 62%
    04:00 -1°C° 0 mm 5 mps 745 mmHg 63%
    05:00 -1°C° 0 mm 5 mps 745 mmHg 64%
    06:00 -1°C° 0 mm 5 mps 745 mmHg 64%
    07:00 -2°C° 0 mm 6 mps 745 mmHg 64%
    08:00 -2°C° 0 mm 6 mps 744 mmHg 63%
    09:00 -2°C° 0 mm 6 mps 744 mmHg 62%
    10:00 -1°C° 0 mm 6 mps 744 mmHg 61%
    11:00 -1°C° 0 mm 6 mps 744 mmHg 60%
    12:00 -1°C° 0 mm 6 mps 744 mmHg 63%
    13:00 -1°C° 0 mm 6 mps 743 mmHg 67%
    14:00 -1°C° 0 mm 6 mps 743 mmHg 70%
    15:00 -1°C° 0 mm 6 mps 743 mmHg 73%
    16:00 -2°C° 0 mm 6 mps 742 mmHg 76%
    17:00 -2°C° 0 mm 6 mps 742 mmHg 80%
    18:00 -2°C° 0 mm 6 mps 742 mmHg 82%
    19:00 -2°C° 0 mm 6 mps 742 mmHg 84%
    20:00 -3°C° 0 mm 6 mps 742 mmHg 86%
    21:00 -3°C° 0.1 mm 6 mps 742 mmHg 88%
    22:00 -3°C° 0.1 mm 6 mps 742 mmHg 90%
    23:00 -2°C° 0.1 mm 5 mps 742 mmHg 91%

    23 January, Thursday

    Time Temperature Precipitation Wind Pressure Humidity
    00:00 -2°C° 0.1 mm 5 mps 743 mmHg 90%
    01:00 -3°C° 0.1 mm 4 mps 743 mmHg 89%
    02:00 -3°C° 0.1 mm 4 mps 743 mmHg 88%
    03:00 -3°C° 0 mm 4 mps 743 mmHg 88%
    04:00 -3°C° 0 mm 4 mps 743 mmHg 88%
    05:00 -3°C° 0 mm 4 mps 744 mmHg 88%
    06:00 -3°C° 0 mm 4 mps 744 mmHg 87%
    07:00 -3°C° 0 mm 4 mps 744 mmHg 87%
    08:00 -3°C° 0 mm 4 mps 744 mmHg 86%
    09:00 -3°C° 0 mm 4 mps 745 mmHg 83%
    10:00 -2°C° 0 mm 4 mps 745 mmHg 80%
    11:00 -2°C° 0 mm 4 mps 745 mmHg 76%
    12:00 -2°C° 0 mm 4 mps 745 mmHg 74%
    13:00 -1°C° 0 mm 4 mps 745 mmHg 71%
    14:00 -1°C° 0 mm 4 mps 745 mmHg 68%
    15:00 -2°C° 0 mm 4 mps 745 mmHg 72%
    16:00 -2°C° 0 mm 4 mps 745 mmHg 75%
    17:00 -1°C° 0 mm 3 mps 745 mmHg 78%
    18:00 -2°C° 0 mm 3 mps 745 mmHg 81%
    19:00 -2°C° 0 mm 3 mps 745 mmHg 84%
    20:00 -2°C° 0 mm 2 mps 746 mmHg 88%
    21:00 -2°C° 0 mm 2 mps 746 mmHg 88%
    22:00 -2°C° 0 mm 2 mps 746 mmHg 89%
    23:00 -3°C° 0 mm 2 mps 746 mmHg 90%
    Show more